Location: Fond Mahaut
(18.0707°N, 63.0465°W)
Time: 05:41:45
(UTC+00:00)

Cosmos 1992 Rocket - Pass Details

Date: 08 December 2019
Orbit: 758 x 766 km, 74.0° (Epoch: 17 January)

Event Time Altitude Azimuth Distance (km) Brightness Sun altitude
Rises 22:33:22 0° 349° (NNW) 3,220 7.1 -13.4°
Reaches altitude 10° 22:35:45 10° 351° (N) 2,295 6.4 -13.9°
Maximum altitude 22:40:57 76° 77° (ENE) 789 3.9 -15.1°
Drops below altitude 10° 22:46:09 10° 162° (SSE) 2,294 6.5 -16.2°
Sets 22:48:31 0° 164° (SSE) 3,219 7.3 -16.8°
